Location: Taukkyan
(23.1052°N, 94.0030°E)
Time: 23:03:53
(UTC+00:00)

Meteor 1-31 Rocket - Pass Details

Date: 06 July 2020
Orbit: 522 x 546 km, 97.6° (Epoch: 05 August)

Event Time Altitude Azimuth Distance (km) Brightness Sun altitude
Rises 22:10:44 0° 13° (NNE) 2,707 7.1 -11.7°
Reaches altitude 10° 22:12:52 10° 15° (NNE) 1,813 6.2 -11.3°
Maximum altitude 22:16:47 76° 101° (E) 564 3.0 -10.5°
Drops below altitude 10° 22:20:41 10° 187° (S) 1,803 5.1 -9.7°
Sets 22:22:48 0° 189° (S) 2,691 6.0 -9.3°
Enters shadow 22:22:50 - 189° (S) 2,710 6.0 -9.3°
